METAR LOCAUX

2020/09/18 21:00 LFST 182100Z AUTO 04005KT CAVOK 18/12 Q1019 NOSIG
2020/09/18 20:50 EDSB 182050Z 04004KT CAVOK 18/12 Q1019
2020/09/18 21:00 LFGA 182100Z AUTO 28005KT CAVOK 19/13 Q1019
www.noaa.gov

Ne pas utiliser pour préparer ou effectuer un vol: Utilisez la documentation officielle disponible sur aviation.meteo.fr (Aéroweb)


"Le soleil du matin ne dure pas forcément toute la journée."

Animation satellite IR

Meteociel.fr

"Derrière chaque nuage se cache le ciel bleu."

Radar pluie

Infoclimat.fr

"Si tu veux l’arc-en-ciel, tu dois supporter la pluie."
Dolly Parton

Nébulosité (octas)

Meteociel.fr

"Le soleil est souvent obscurci par les nuages et la raison par les passions."
Démophile

Impacts de foudre

www.meteo60.fr

"Celui que frappe la foudre n'entend pas le tonnerre."

Vigilance météo

vigilance-meteo.fr

"Tout nuage n'enfante pas une tempête."
William Shakespeare

TAF locaux

2020/09/18 18:21 TAF TAF LFST 181700Z 1818/1918 04008KT CAVOK BECMG 1909/1912 VRB02KT
2020/09/18 18:27 TAF EDSB 181700Z 1818/1918 03006KT CAVOK
www.noaa.gov

Ne pas utiliser pour préparer ou effectuer un vol: Utilisez la documentation officielle disponible sur aviation.meteo.fr (Aéroweb)


"Les jours où le ciel est gris, le soleil n'a pas disparu à tout jamais."
Arnaud Desjardins

Prévisions 7 jours


Meteoblue.com

"Quand les crapauds chantent, le beau temps s'avance !"